RH
42 45 48 50 47 46 47 47 48 48 49 50 82 95 98 96 97 97 97 98 98 98 99 99 100 100 100 100 98 92 87 80 82 68 71 55 64 54 73 65 70 57 59
39 42 48 48 44 44 45 45 44 46 46 67 82 100 99 94 98 100 100 99 98 98 97 98 99 100 100 99 100 93 88 80 76 76 77 75 69 66 79 75 78 70 65
36 39 44 44 39 41 42 42 43 42 49 65 81 99 98 98 100 100 100 98 97 98 98 98 99 100 100 99 100 92 86 81 77 81 88 80 63 79 83 79 99 95 81
36 36 39 36 34 37 39 40 41 43 55 71 74 98 96 98 100 100 99 98 98 99 99 100 99 100 100 100 95 88 84 84 83 90 95 99 93 89 85 98 98 100 100
34 34 33 30 32 35 38 38 40 44 47 54 84 98 98 100 100 98 98 98 98 98 100 100 100 98 96 79 90 87 83 92 94 95 96 99 97 88 97 92 95 100 100
32 31 28 29 32 36 38 40 40 41 51 61 92 99 98 100 96 98 98 98 98 98 100 100 100 100 97 92 87 92 94 96 96 97 96 96 74 98 98 93 95 98 96
30 28 28 30 33 37 40 41 41 60 83 88 98 99 98 100 98 98 98 98 99 100 100 100 100 100 100 100 100 98 98 98 98 97 97 79 94 93 96 97 95 91 98
30 26 29 32 36 40 41 41 44 46 51 71 94 97 98 99 97 97 98 99 99 100 99 100 100 100 99 100 100 100 100 99 97 93 93 99 96 94 96 91 97 100 100
30 27 26 28 37 43 44 42 41 42 44 46 85 98 99 99 99 100 100 100 100 100 100 100 99 99 100 98 99 98 96 99 100 93 100 100 100 100 100 98 98 96 98
27 28 30 30 36 44 48 47 40 39 44 46 54 97 98 99 98 100 100 99 99 99 100 100 99 99 98 100 98 100 99 100 100 100 100 100 100 96 89 91 92 98 98
25 26 31 33 32 40 49 53 50 44 40 49 49 66 96 98 99 99 99 100 99 98 99 100 100 99 99 100 99 99 99 100 100 100 100 100 100 93 89 87 87 83 90
26 29 34 40 39 38 38 35 42 51 51 41 51 48 51 76 84 88 96 99 100 98 99 100 100 100 99 99 98 100 100 99 100 100 100 100 100 100 98 91 86 86 98
27 31 32 24 40 46 36 29 34 39 52 60 47 53 49 50 51 59 80 96 97 98 97 98 100 100 100 99 99 98 99 100 100 99 100 100 100 100 100 99 100 100 99
27 31 34 34 11 10 25 34 22 32 44 56 65 55 55 51 51 50 54 78 94 92 93 97 96 98 99 100 100 100 100 100 100 100 100 100 100 100 100 99 98 98 95
28 33 34 35 36 31 17 15 19 17 33 48 53 59 61 58 43 38 40 44 62 86 93 93 93 95 98 99 100 100 100 100 100 100 100 100 100 100 100 100 97 95 99
28 33 35 37 40 42 47 56 37 24 24 26 29 30 28 27 22 28 31 32 38 49 65 84 90 96 98 99 100 100 100 100 100 100 100 100 100 100 100 100 100 100 99
26 30 33 38 44 51 55 58 59 39 38 30 24 18 16 13 12 22 22 27 34 34 47 56 63 67 74 84 91 97 100 100 100 99 98 98 99 99 99 100 100 100 100
27 35 40 42 43 51 56 58 58 59 56 50 41 24 14 8 8 10 17 22 30 36 44 52 56 62 62 68 72 83 89 91 93 96 98 99 99 100 100 100 99 100 100
37 45 50 49 44 50 54 58 58 57 56 50 36 24 24 11 7 9 15 35 40 41 44 46 50 52 57 61 60 60 65 72 77 79 80 86 91 96 97 100 95 98 96
49 52 44 43 55 54 54 56 58 59 52 23 33 42 35 12 18 24 20 16 22 24 21 21 26 26 31 30 29 33 36 41 47 56 60 64 70 75 77 84 89 92 97
39 51 54 56 56 55 55 56 58 56 56 27 33 48 45 39 34 24 24 24 15 12 11 9 8 11 11 10 11 13 18 21 21 25 27 24 20 26 33 39 38 33 31
30 37 57 58 54 56 55 54 55 53 55 40 19 49 54 49 24 19 21 14 8 7 6 6 7 6 6 6 7 8 10 13 13 12 12 12 12 12 14 16 19 20 20
40 33 56 60 58 58 56 56 55 54 56 56 24 22 29 34 24 11 10 7 6 4 3 3 4 4 4 4 4 5 5 7 8 8 9 10 13 15 16 18 19 22 26
55 41 47 58 57 49 50 59 59 57 58 51 29 22 20 16 15 15 13 10 7 6 5 4 3 3 3 3 3 4 4 4 4 5 5 5 7 8 8 9 12 18 24
63 52 47 54 49 52 56 55 62 56 49 43 25 28 23 19 16 15 14 14 14 13 12 10 8 6 5 4 4 4 4 4 4 4 4 4 4 5 5 5 6 8 8
59 58 54 55 53 46 54 57 59 57 46 28 22 19 26 24 19 18 16 16 16 16 16 16 15 15 14 12 11 10 8 7 7 7 6 6 5 5 5 5 5 5 8
Wind_Speed
12 14 17 19 20 21 22 23 24 25 26 25 25 35 24 28 25 22 20 19 17 19 19 21 25 26 23 24 24 24 23 22 11 15 9 21 19 23 24 24 22 31 38
12 15 17 19 21 22 23 25 25 26 26 28 37 29 29 26 27 25 22 17 15 13 12 14 17 21 27 24 25 25 25 24 22 13 15 13 26 26 27 23 25 37 39
14 16 18 20 21 23 24 26 25 26 24 29 33 26 30 28 28 26 23 21 19 15 16 17 14 21 26 27 26 26 24 23 22 15 12 9 29 28 25 25 30 32 32
15 17 18 21 22 23 24 25 25 25 24 31 29 27 33 29 30 28 30 25 22 18 18 16 10 22 25 26 27 26 25 22 20 18 16 16 25 29 31 30 31 32 42
16 17 20 21 22 24 24 26 26 26 27 31 40 31 35 30 35 32 28 27 26 23 18 16 15 19 24 29 26 26 26 23 20 18 18 13 18 27 29 39 39 37 34
17 18 20 22 23 25 25 27 28 29 28 30 36 33 38 36 32 29 28 28 29 27 24 25 20 16 19 24 27 27 28 27 23 21 19 15 27 25 40 46 40 34 19
17 19 21 23 24 25 26 27 28 29 26 28 31 41 36 41 34 30 28 27 26 32 33 29 22 15 21 21 18 28 32 29 25 27 29 28 33 43 42 44 42 36 28
18 20 21 23 24 25 27 29 31 29 28 28 27 41 34 45 43 34 27 27 33 37 40 34 30 23 16 20 36 37 30 26 24 25 31 40 48 49 42 45 44 43 45
18 20 21 23 25 26 29 30 31 30 32 30 31 33 39 39 49 39 28 28 30 36 40 50 40 36 30 41 37 46 33 29 52 58 53 54 51 48 53 54 44 42 30
17 19 22 24 26 28 29 29 30 31 30 30 30 34 35 39 49 50 39 34 39 37 42 48 50 50 47 47 46 42 41 31 52 55 58 61 57 54 47 45 43 36 32
17 19 21 24 27 28 28 30 30 31 33 32 32 34 38 41 41 48 49 41 35 37 41 43 48 59 58 53 49 46 34 45 56 54 53 51 59 56 50 46 43 43 36
16 19 22 24 26 29 31 33 35 33 32 35 33 35 38 39 43 44 46 46 40 41 39 39 42 56 63 58 53 46 50 53 50 50 48 43 52 53 48 47 45 43 43
18 20 23 26 24 25 30 36 36 36 32 30 33 33 36 40 41 42 42 44 44 40 40 43 49 53 55 57 57 52 50 47 44 42 40 40 46 50 51 48 46 47 40
15 17 18 23 33 35 31 29 38 38 34 32 30 34 34 39 44 43 39 37 40 38 39 44 48 49 51 48 53 50 47 42 42 39 40 40 40 45 48 46 46 44 44
14 15 16 17 19 25 33 34 34 34 38 36 36 31 35 35 40 45 45 45 39 37 40 48 49 47 46 46 47 47 45 42 43 38 39 35 41 44 40 44 42 39 41
13 13 14 15 16 16 17 20 26 28 33 36 37 38 39 40 42 45 51 48 45 42 50 45 42 41 41 40 41 42 44 44 39 42 43 38 38 40 40 40 44 46 42
13 11 12 13 14 14 16 17 18 23 27 32 34 35 36 38 41 42 46 49 47 50 47 41 40 39 38 38 38 39 39 40 43 46 45 41 40 41 38 36 38 43 35
13 12 12 11 12 12 14 15 17 19 22 25 28 31 34 36 39 44 45 45 48 49 42 39 37 36 37 38 38 37 38 41 43 43 44 42 39 36 36 37 36 34 33
12 13 10 10 12 12 12 12 13 15 16 17 20 25 27 31 34 39 42 41 36 38 37 38 37 38 38 38 38 41 44 43 42 42 41 41 38 41 41 33 44 38 37
13 13 11 13 11 10 10 9 10 12 13 16 18 19 21 26 30 33 35 38 38 37 38 40 41 42 42 43 44 43 43 42 41 41 40 39 37 36 34 33 39 35 32
14 15 12 11 9 8 8 8 8 10 10 12 15 16 17 19 19 23 27 28 29 30 31 34 35 36 37 38 39 41 42 41 40 40 40 39 39 39 37 36 34 33 32
16 15 13 11 10 10 7 7 7 7 6 7 9 12 13 14 16 18 20 21 22 22 24 25 27 27 29 31 31 33 34 34 34 33 33 33 33 32 31 30 28 27 25
15 16 14 11 10 10 9 7 6 6 5 3 5 7 9 11 11 13 15 16 15 17 18 19 20 20 21 23 23 24 26 27 25 24 25 25 24 24 23 23 22 21 19
16 16 16 13 13 11 10 9 7 7 5 4 3 4 5 5 7 8 9 10 10 11 12 13 13 14 15 16 17 17 18 17 17 17 16 16 17 16 16 15 14 13 12
18 17 17 17 16 14 12 11 10 8 10 7 6 4 2 2 3 4 5 5 6 6 8 8 8 9 9 10 10 11 11 10 10 10 10 9 9 9 8 7 6 5 4
22 20 19 18 17 18 18 16 15 14 12 11 9 9 8 5 4 3 3 4 4 3 4 4 5 5 6 5 5 5 5 5 4 4 4 3 3 3 2 2 0 2 3
Wind_Direction
10 2 2 360 356 360 357 347 349 347 344 343 353 338 343 341 338 330 324 312 292 281 272 257 239 226 213 210 210 211 210 208 230 255 285 219 221 203 193 196 195 198 186
11 8 10 360 2 2 356 353 353 351 350 1 347 343 346 345 337 329 324 325 316 302 282 263 247 226 211 204 201 205 203 207 217 240 269 246 214 199 185 189 176 182 181
14 13 10 5 6 2 360 358 357 352 0 356 345 349 353 346 339 345 353 351 344 329 321 305 268 208 197 196 196 200 199 204 214 227 244 240 176 178 176 180 169 171 180
17 16 8 10 7 3 3 2 356 0 1 351 3 9 358 352 353 358 1 352 354 7 11 12 162 173 176 182 188 190 193 195 203 217 237 270 165 173 173 167 160 159 156
20 15 13 11 9 9 9 1 359 1 2 4 9 4 3 0 10 9 3 360 6 13 36 57 146 164 171 180 179 181 185 189 197 207 226 238 181 180 183 154 163 143 135
24 17 15 13 14 11 6 2 7 7 20 9 13 9 7 14 18 8 13 12 18 18 27 44 67 112 167 177 189 193 189 187 196 204 213 222 183 187 133 150 147 138 130
27 21 17 14 17 12 6 8 13 14 11 20 16 14 16 19 21 14 20 24 29 33 37 45 61 86 119 135 179 201 211 202 205 219 229 180 166 141 134 133 136 129 112
31 22 20 16 17 12 12 12 13 11 17 26 21 14 17 22 24 23 26 33 37 40 35 41 55 74 121 147 108 109 119 149 174 186 187 132 125 128 126 127 120 107 104
33 24 18 16 18 15 16 14 15 15 16 23 26 18 16 19 23 27 33 36 45 42 41 44 47 62 88 100 94 96 97 114 112 112 104 110 113 120 114 112 112 109 102
36 31 23 17 22 20 16 16 18 22 20 24 32 26 21 23 25 30 34 33 38 39 42 40 43 58 82 80 76 74 67 67 88 94 98 101 107 106 113 111 116 111 116
43 37 32 26 29 24 21 19 18 22 26 26 29 30 26 25 25 28 36 41 39 44 42 39 39 59 66 74 79 75 77 89 91 92 91 93 103 110 115 118 121 124 122
48 42 36 32 34 30 30 32 28 22 25 27 27 28 29 28 30 31 34 44 46 49 46 44 44 54 64 68 72 76 84 92 94 88 87 87 101 108 116 124 127 128 128
59 53 47 45 45 38 34 35 31 27 23 24 27 26 25 26 28 34 35 39 46 49 50 50 50 53 57 58 63 75 79 81 83 87 81 82 95 109 117 119 117 122 121
65 61 52 45 49 52 50 38 39 32 27 24 22 25 25 28 29 31 36 41 44 47 50 51 54 56 56 55 58 62 65 71 79 85 88 94 101 106 109 123 122 113 107
73 65 59 57 47 45 50 48 47 42 42 37 34 33 26 26 33 42 47 45 48 52 57 52 49 49 52 51 53 54 60 69 73 79 88 89 93 101 101 118 121 118 102
81 69 66 60 55 52 44 42 43 43 41 43 45 46 47 47 50 46 49 51 52 54 55 49 49 49 50 49 51 53 55 60 66 75 79 81 87 93 97 100 110 109 106
97 89 74 68 61 56 55 51 43 47 45 41 41 47 53 58 60 52 53 52 51 56 54 51 51 50 54 56 57 56 57 60 70 75 78 80 86 92 92 94 99 106 103
105 96 91 81 80 69 63 57 51 41 37 37 40 43 52 58 60 62 59 56 49 50 49 49 51 53 55 57 59 61 64 65 66 70 74 77 83 88 88 90 96 98 103
115 112 112 104 94 82 73 65 57 49 45 45 51 53 49 61 63 63 63 56 51 51 51 53 54 56 58 62 62 65 69 69 72 75 75 79 81 87 88 91 103 101 101
138 129 119 110 101 94 82 69 63 58 52 55 57 51 50 57 56 57 59 64 64 65 66 66 66 70 71 72 74 74 75 74 75 79 81 85 87 88 89 91 96 99 98
151 137 131 121 118 112 102 92 79 70 64 63 68 65 59 59 60 65 66 64 66 68 69 72 73 74 74 76 79 81 82 81 83 85 86 88 89 88 92 96 99 99 99
163 155 143 148 146 131 128 119 110 98 81 70 77 76 73 75 73 74 73 71 72 74 74 76 77 76 77 78 79 81 82 83 84 85 86 88 90 92 94 94 94 94 95
172 167 162 166 160 158 153 147 141 133 126 109 87 83 84 87 79 77 78 81 81 82 82 82 82 81 81 82 82 82 84 83 85 88 90 91 91 92 94 98 101 101 100
182 180 177 181 182 178 173 173 170 161 169 180 146 112 102 93 89 92 94 94 92 92 93 90 88 87 88 89 86 85 83 86 87 86 86 88 91 92 93 98 102 104 109
191 192 190 194 195 189 191 191 187 201 199 204 186 181 177 146 140 121 110 116 117 115 112 108 106 104 102 98 96 92 93 94 91 92 91 91 94 94 92 91 91 96 112
199 200 201 203 210 207 201 201 203 209 216 218 209 204 202 203 224 218 200 184 173 159 136 128 129 122 114 119 119 117 112 105 101 91 87 88 102 104 99 90 279 272 265